STARLINK-34575, 64859

Orbit data source: Space-Track

STARLINK-34575, 64859 is a payload satellite owned by SpaceX/Seattle (US) in SSO that was launched on Sat, 19 Jul 2025 UTC via an FALCON 9 launch vehicle from the Air Force Western Test Range (AFWTR). Payload-class satellites include a variety of spacecraft equipped with specific instruments for various scientific and technological missions. These include communications satellites like Starlink; space stations such as the ISS; scientific satellites like the Hubble; Earth observation satellites from companies like Planet Labs, Umbra, and HawkEye 360; GPS; miniature CubeSats for education and research; and military/defense satellites.

Loading next visibility...
Identifier
64859, 2025-152T
Orbit
SSO
Country
Flag of USUS
Related business
Manufacturer
SpaceX/Seattle
Mission
Operational Commercial Communications
Bus & Motor
STARLINK V2MO, Unknown motor
Mass
575 kg wet, ~530 kg dry
Launch date (UTC)
2025-07-19 (9 months ago)
Launch vehicle
FALCON 9
Launch site
Air Force Western Test Range (AFWTR)
Object type
Payload
Rocket body
Debris
Shape & HBR
Box + 2 Pan, 17.7 m
Radar Cross Section
36.964 m², Large (>1 m²)

Expand to show TLE details & history
Last TLE update: 11 hours ago

TLE from 11 hours ago
0 STARLINK-34575
1 64859U 25152T   26095.14579730  .00005828  00000-0  40785-3 0  9995
2 64859  97.6025 311.6650 0002058  82.8803 277.2658 15.05644919 39406
Epoch: 2026-04-05T03:29Z
TLE epoch observation values (Epoch: 2026-04-05T03:29:56.886Z)
Latitude
-0.00001°
Longitude
65.72256°
Altitude
552.412 km
Speed
7.586 km/s
True Right ascension
20h 46m 39s
True Declination
0° 00' 00"
Sunlit
Object was in daylight at epoch
Visualization orbit readout
Latitude
Unknown
Longitude
Unknown
Altitude
Unknown
Speed
Unknown
Apparent Right ascension
Unknown
Apparent Declination
Unknown
Sunlit
N/A
Visualization observer readout
Local Sidereal Time
20:11:18
Azimuth
Unknown
Elevation
Unknown
Doppler factor
Unknown
Orbital elements
Apogee altitude
547.945 km
Perigee altitude
545.095 km
Semi-major axis
6,924.657 km
Eccentricity
0.00021
Inclination
97.6025°
RAAN
311.665°
Arg. of periapsis
82.8803°
True anomaly
277.24241°
Mean anomaly
277.2658°
Eccentric anomaly
277.2541°
Mean motion
3.76657 °/min
Orbital period
95.58 mins
BSTAR
0.00040785
Loading maneuver chart data...
Computing Atmospheric mass density...
Loading historical data...
Loading historical data...
Loading historical data...
Loading historical data...
Loading historical data...
Loading historical data...
Loading historical data...

Documentation

Showing up to 5 results
|